Time,TemperatureF,DewpointF,PressureIn,WindDirection,WindDirectionDegrees,WindSpeedMPH,WindSpeedGustMPH,Humidity,HourlyPrecipIn,Conditions,Clouds,dailyrainin,SoftwareType,DateUTC
2013-09-26 11:34:00,64.0,63.0,27.83,South,180,0.0,0.0,97,0.00,,,0.00,Rainwise IP-100,2013-09-26 15:34:00,
2013-09-26 11:39:00,64.0,64.0,27.83,South,180,0.0,0.0,100,0.00,,,0.00,Rainwise IP-100,2013-09-26 15:39:00,
2013-09-26 11:44:00,64.0,64.0,27.83,South,180,0.0,0.0,100,0.00,,,0.00,Rainwise IP-100,2013-09-26 15:44:00,
2013-09-26 11:49:00,64.0,64.0,27.83,South,180,0.0,0.0,100,0.00,,,0.00,Rainwise IP-100,2013-09-26 15:49:00,
2013-09-26 11:54:00,64.0,64.0,27.83,South,180,0.0,0.0,100,0.00,,,0.00,Rainwise IP-100,2013-09-26 15:54:00,
2013-09-26 11:59:00,64.0,64.0,27.83,South,180,0.0,0.0,100,0.00,,,0.00,Rainwise IP-100,2013-09-26 15:59:00,
2013-09-26 12:04:00,64.0,64.0,27.83,South,180,0.0,0.0,100,0.00,,,0.00,Rainwise IP-100,2013-09-26 16:04:00,
2013-09-26 12:09:00,64.0,64.0,27.83,South,180,0.0,0.0,100,0.00,,,0.00,Rainwise IP-100,2013-09-26 16:09:00,
2013-09-26 15:13:00,71.0,61.0,27.78,North,360,0.0,0.0,73,0.00,,,0.00,Rainwise IP-100,2013-09-26 19:13:00,
2013-09-26 15:18:00,73.0,62.0,27.78,ENE,67,0.0,0.0,68,0.00,,,0.00,Rainwise IP-100,2013-09-26 19:18:00,
2013-09-26 15:23:00,74.0,62.0,27.77,SE,135,0.0,0.0,66,0.00,,,0.00,Rainwise IP-100,2013-09-26 19:23:00,
2013-09-26 15:28:00,74.0,61.0,27.77,SE,135,0.0,0.0,63,0.00,,,0.00,Rainwise IP-100,2013-09-26 19:28:00,
2013-09-26 15:33:00,75.0,62.0,27.78,West,270,0.0,0.0,64,0.00,,,0.00,Rainwise IP-100,2013-09-26 19:33:00,
2013-09-26 15:38:00,74.0,61.0,27.78,South,180,0.0,0.0,63,0.00,,,0.00,Rainwise IP-100,2013-09-26 19:38:00,
2013-09-26 15:43:00,74.0,61.0,27.78,South,180,0.0,0.0,63,0.00,,,0.00,Rainwise IP-100,2013-09-26 19:43:00,
2013-09-26 15:48:00,73.0,61.0,27.78,SSE,157,0.0,0.0,66,0.00,,,0.00,Rainwise IP-100,2013-09-26 19:48:00,
2013-09-26 15:53:00,73.0,62.0,27.78,SSE,157,0.0,0.0,68,0.00,,,0.00,Rainwise IP-100,2013-09-26 19:53:00,
2013-09-26 15:58:00,73.0,62.0,27.78,SSE,157,0.0,0.0,68,0.00,,,0.00,Rainwise IP-100,2013-09-26 19:58:00,
2013-09-26 16:03:00,73.0,62.0,27.78,SSE,157,0.0,0.0,68,0.00,,,0.00,Rainwise IP-100,2013-09-26 20:03:00,
2013-09-26 16:08:00,72.0,61.0,27.78,ENE,67,0.0,0.0,70,0.00,,,0.00,Rainwise IP-100,2013-09-26 20:08:00,
2013-09-26 16:13:00,73.0,61.0,27.78,NNW,337,1.0,3.0,66,0.00,,,0.00,Rainwise IP-100,2013-09-26 20:13:00,
2013-09-26 16:18:00,73.0,59.0,27.78,SE,135,1.0,2.0,61,0.00,,,0.00,Rainwise IP-100,2013-09-26 20:18:00,
2013-09-26 16:23:00,73.0,60.0,27.79,ESE,112,0.0,3.0,64,0.00,,,0.00,Rainwise IP-100,2013-09-26 20:23:00,
2013-09-26 16:28:00,71.0,60.0,27.79,SE,135,0.0,0.0,69,0.00,,,0.00,Rainwise IP-100,2013-09-26 20:28:00,
2013-09-26 16:33:00,71.0,60.0,27.79,SE,135,0.0,0.0,69,0.00,,,0.00,Rainwise IP-100,2013-09-26 20:33:00,
2013-09-26 16:38:00,70.0,61.0,27.80,SE,135,0.0,0.0,73,0.00,,,0.00,Rainwise IP-100,2013-09-26 20:38:00,
2013-09-26 16:43:00,70.0,60.0,27.79,NE,45,1.0,0.0,72,0.00,,,0.00,Rainwise IP-100,2013-09-26 20:43:00,
2013-09-26 16:48:00,70.0,60.0,27.79,NE,45,1.0,1.0,72,0.00,,,0.00,Rainwise IP-100,2013-09-26 20:48:00,
2013-09-26 16:53:00,70.0,61.0,27.80,South,180,0.0,1.0,73,0.00,,,0.00,Rainwise IP-100,2013-09-26 20:53:00,
2013-09-26 16:58:00,70.0,61.0,27.80,South,180,0.0,0.0,73,0.00,,,0.00,Rainwise IP-100,2013-09-26 20:58:00,
2013-09-26 17:03:00,70.0,61.0,27.80,South,180,0.0,0.0,73,0.00,,,0.00,Rainwise IP-100,2013-09-26 21:03:00,
2013-09-26 17:08:00,70.0,61.0,27.80,South,180,0.0,0.0,73,0.00,,,0.00,Rainwise IP-100,2013-09-26 21:08:00,
2013-09-26 17:13:00,70.0,61.0,27.80,South,180,0.0,0.0,73,0.00,,,0.00,Rainwise IP-100,2013-09-26 21:13:00,
2013-09-26 17:18:00,70.0,61.0,27.80,South,180,0.0,0.0,73,0.00,,,0.00,Rainwise IP-100,2013-09-26 21:18:00,
2013-09-26 17:23:00,70.0,61.0,27.80,South,180,0.0,0.0,73,0.00,,,0.00,Rainwise IP-100,2013-09-26 21:23:00,
2013-09-26 17:28:00,70.0,61.0,27.80,South,180,0.0,0.0,73,0.00,,,0.00,Rainwise IP-100,2013-09-26 21:28:00,
2013-09-26 17:33:00,70.0,61.0,27.80,South,180,0.0,0.0,73,0.00,,,0.00,Rainwise IP-100,2013-09-26 21:33:00,
2013-09-26 17:38:00,70.0,61.0,27.80,South,180,0.0,0.0,73,0.00,,,0.00,Rainwise IP-100,2013-09-26 21:38:00,
2013-09-26 17:43:00,70.0,61.0,27.80,South,180,0.0,0.0,73,0.00,,,0.00,Rainwise IP-100,2013-09-26 21:43:00,
2013-09-26 17:48:00,70.0,61.0,27.80,South,180,0.0,0.0,73,0.00,,,0.00,Rainwise IP-100,2013-09-26 21:48:00,
2013-09-26 17:53:00,70.0,61.0,27.80,South,180,0.0,0.0,73,0.00,,,0.00,Rainwise IP-100,2013-09-26 21:53:00,
2013-09-26 17:58:00,68.0,60.0,27.81,NNE,22,2.0,0.0,76,0.00,,,0.00,Rainwise IP-100,2013-09-26 21:58:00,
2013-09-26 18:03:00,68.0,59.0,27.81,NNE,22,1.0,3.0,72,0.00,,,0.00,Rainwise IP-100,2013-09-26 22:03:00,
2013-09-26 18:08:00,68.0,60.0,27.81,NNE,22,0.0,3.0,75,0.00,,,0.00,Rainwise IP-100,2013-09-26 22:08:00,
2013-09-26 18:13:00,68.0,59.0,27.81,NNE,22,0.0,0.0,74,0.00,,,0.00,Rainwise IP-100,2013-09-26 22:13:00,
2013-09-26 18:18:00,67.0,59.0,27.81,NNE,22,0.0,0.0,75,0.00,,,0.00,Rainwise IP-100,2013-09-26 22:18:00,
2013-09-26 18:23:00,67.0,60.0,27.81,NNE,22,0.0,0.0,77,0.00,,,0.00,Rainwise IP-100,2013-09-26 22:23:00,
2013-09-26 18:28:00,67.0,60.0,27.81,NNE,22,0.0,0.0,77,0.00,,,0.00,Rainwise IP-100,2013-09-26 22:28:00,
2013-09-26 18:33:00,67.0,60.0,27.81,NNE,22,0.0,0.0,77,0.00,,,0.00,Rainwise IP-100,2013-09-26 22:33:00,
2013-09-26 18:38:00,67.0,60.0,27.81,NNE,22,0.0,0.0,77,0.00,,,0.00,Rainwise IP-100,2013-09-26 22:38:00,
2013-09-26 18:43:00,67.0,60.0,27.81,NNE,22,0.0,0.0,77,0.00,,,0.00,Rainwise IP-100,2013-09-26 22:43:00,
2013-09-26 18:48:00,67.0,60.0,27.81,NNE,22,0.0,0.0,77,0.00,,,0.00,Rainwise IP-100,2013-09-26 22:48:00,
2013-09-26 18:53:00,65.0,59.0,27.83,NNE,22,0.0,0.0,83,0.00,,,0.00,Rainwise IP-100,2013-09-26 22:53:00,
2013-09-26 18:58:00,65.0,60.0,27.83,NNE,22,0.0,0.0,84,0.00,,,0.00,Rainwise IP-100,2013-09-26 22:58:00,
2013-09-26 19:03:00,65.0,60.0,27.83,NNE,22,0.0,0.0,84,0.00,,,0.00,Rainwise IP-100,2013-09-26 23:03:00,
2013-09-26 19:08:00,64.0,60.0,27.83,NNE,22,0.0,0.0,86,0.00,,,0.00,Rainwise IP-100,2013-09-26 23:08:00,
2013-09-26 19:13:00,64.0,60.0,27.83,NNE,22,0.0,0.0,86,0.00,,,0.00,Rainwise IP-100,2013-09-26 23:13:00,
2013-09-26 19:18:00,64.0,60.0,27.83,NNE,22,0.0,0.0,86,0.00,,,0.00,Rainwise IP-100,2013-09-26 23:18:00,
2013-09-26 19:23:00,64.0,60.0,27.83,NNE,22,0.0,0.0,86,0.00,,,0.00,Rainwise IP-100,2013-09-26 23:23:00,
2013-09-26 19:28:00,64.0,60.0,27.83,NNE,22,0.0,0.0,86,0.00,,,0.00,Rainwise IP-100,2013-09-26 23:28:00,
2013-09-26 19:33:00,64.0,60.0,27.83,NNE,22,0.0,0.0,86,0.00,,,0.00,Rainwise IP-100,2013-09-26 23:33:00,
2013-09-26 19:38:00,64.0,60.0,27.83,NNE,22,0.0,0.0,86,0.00,,,0.00,Rainwise IP-100,2013-09-26 23:38:00,
2013-09-26 20:21:00,60.0,57.0,27.86,NNE,22,0.0,0.0,92,0.00,,,0.00,Rainwise IP-100,2013-09-27 00:21:00,
2013-09-26 20:26:00,60.0,57.0,27.86,NNE,22,0.0,0.0,92,0.00,,,0.00,Rainwise IP-100,2013-09-27 00:26:00,
2013-09-26 20:31:00,60.0,57.0,27.86,NNE,22,0.0,0.0,92,0.00,,,0.00,Rainwise IP-100,2013-09-27 00:31:00,